Brisbane, Australia

4:38 PM AEST on April 29, 2017 (GMT +1000)
Brisbane International

Weather History for YBBN - October, 2013

Change the Weather History Date:

Thursday, October 31, 2013

  Actual Average Record
Temperature  
Mean Temperature 71 °F -  
Max Temperature 77 °F 81 °F 91 °F (2001)
Min Temperature 65 °F 65 °F 57 °F (2004)
Cooling Degree Days 6    
Growing Degree Days 21 (Base 50)    
Moisture  
Dew Point 56 °F    
Average Humidity 56    
Maximum Humidity 73    
Minimum Humidity 38    
Precipitation  
Precipitation 0.00 in 0.14 in - ()
Sea Level Pressure  
Sea Level Pressure 30.09 in    
Wind  
Wind Speed 8 mph ()    
Max Wind Speed 14 mph    
Max Gust Speed -    
Visibility 7.4 miles    
Events Rain    
Averages and records for this station are not official NWS values.
T = Trace of Precipitation, MM = Missing Value Source: Averaged Metar Reports

Daily Weather History Graph

Daily Weather History Graph

Search for Another Location

Airport or City:

Trip Planner

Search our weather history database for the weather conditions in past years. The results will help you decide how hot, cold, wet, or windy it might be!

Date:

Astronomy

Oct. 31, 2013 Rise Set
Actual Time 4:57 AM AEST 6:05 PM AEST
Civil Twilight 4:33 AM AEST 6:29 PM AEST
Nautical Twilight 4:04 AM AEST 6:58 PM AEST
Astronomical Twilight 3:34 AM AEST 7:28 PM AEST
Moon 2:27 AM AEST (10/31) 2:51 PM AEST (10/31)
Length of Visible Light 13h 56m
Length of Day
13h 07m
Waning Crescent, 14% of the Moon is Illuminated
Oct 31
Waning Crescent
Nov 3
New
Nov 10
First Quarter
Nov 18
Full
Nov 26
Last Quarter

Hourly Weather History & Observations

Time (AEST) Temp. Dew Point Humidity Pressure Visibility Wind Dir Wind Speed Gust Speed Precip Events Conditions
12:00 AM 69 °F 58 °F 60% 30.07 in 12 mi ESE 9.2 mph - -   Partly Cloudy
12:00 AM 69.8 °F 59.0 °F 68% 30.06 in 6.2 mi ESE 9.2 mph - N/A   Mostly Cloudy
12:30 AM 69.8 °F 59.0 °F 68% 30.06 in 6.2 mi East 6.9 mph - N/A   Mostly Cloudy
1:00 AM 69 °F 59 °F 64% 30.06 in - ESE 8.1 mph - -  
1:00 AM 69.8 °F 59.0 °F 68% 30.04 in 6.2 mi ESE 8.1 mph - N/A   Mostly Cloudy
1:30 AM 69.8 °F 55.4 °F 60% 30.04 in 6.2 mi East 6.9 mph - N/A   Mostly Cloudy
2:00 AM 69.8 °F 55.4 °F 60% 30.04 in 6.2 mi ESE 9.2 mph - N/A Rain Light Rain Showers
2:30 AM 68.0 °F 59.0 °F 73% 30.04 in 6.2 mi East 8.1 mph - N/A Rain Light Rain Showers
3:00 AM 67 °F 56 °F 61% 30.04 in 12 mi South 5.8 mph - - Rain Light Rain Showers
3:00 AM 68.0 °F 57.2 °F 68% 30.04 in 6.2 mi South 5.8 mph - N/A   Mostly Cloudy
3:30 AM 68.0 °F 55.4 °F 64% 30.04 in 6.2 mi SSE 4.6 mph - N/A   Mostly Cloudy
4:00 AM 67 °F 55 °F 57% 30.06 in - SSE 5.8 mph - -  
4:00 AM 66.2 °F 55.4 °F 68% 30.04 in 6.2 mi SSE 5.8 mph - N/A   Scattered Clouds
4:30 AM 66.2 °F 55.4 °F 68% 30.04 in - SSE 5.8 mph - N/A   Clear
5:00 AM 66.2 °F 53.6 °F 64% 30.06 in 6.2 mi SSE 5.8 mph - N/A   Scattered Clouds
5:30 AM 66.2 °F 55.4 °F 68% 30.06 in 6.2 mi SSE 5.8 mph - N/A   Partly Cloudy
6:00 AM 67 °F 54 °F 53% 30.09 in 16 mi SSE 5.8 mph - -   Partly Cloudy
6:00 AM 68.0 °F 53.6 °F 60% 30.09 in 6.2 mi SSE 5.8 mph - N/A   Scattered Clouds
6:30 AM 68.0 °F 53.6 °F 60% 30.09 in 6.2 mi South 6.9 mph - N/A   Scattered Clouds
7:00 AM 71 °F 55 °F 48% 30.11 in - SE 6.9 mph - -  
7:00 AM 69.8 °F 55.4 °F 60% 30.09 in 6.2 mi SE 6.9 mph - N/A   Scattered Clouds
7:30 AM 73.4 °F 55.4 °F 53% 30.09 in 6.2 mi SE 9.2 mph - N/A   Mostly Cloudy
8:00 AM 71.6 °F 57.2 °F 60% 30.12 in 6.2 mi ESE 9.2 mph - N/A   Mostly Cloudy
8:30 AM 73.4 °F 57.2 °F 57% 30.12 in 6.2 mi ESE 10.4 mph - N/A   Scattered Clouds
9:00 AM 74 °F 56 °F 43% 30.14 in 12 mi ESE 12.7 mph - -   Partly Cloudy
9:00 AM 73.4 °F 55.4 °F 53% 30.12 in 6.2 mi ESE 12.7 mph - N/A   Scattered Clouds
9:30 AM 75.2 °F 55.4 °F 50% 30.12 in 6.2 mi ESE 10.4 mph - N/A   Scattered Clouds
10:00 AM 75 °F 54 °F 38% 30.13 in - ESE 11.5 mph - -  
10:00 AM 75.2 °F 55.4 °F 50% 30.12 in 6.2 mi ESE 11.5 mph - N/A   Partly Cloudy
10:30 AM 73.4 °F 55.4 °F 53% 30.12 in 6.2 mi ESE 10.4 mph - N/A   Partly Cloudy
11:00 AM 75.2 °F 57.2 °F 53% 30.09 in 6.2 mi ESE 11.5 mph - N/A   Scattered Clouds
11:30 AM 75.2 °F 57.2 °F 53% 30.09 in 6.2 mi East 11.5 mph - N/A   Mostly Cloudy
12:00 PM 76 °F 57 °F 41% 30.11 in 16 mi ESE 11.5 mph - -   Partly Cloudy
12:00 PM 75.2 °F 57.2 °F 53% 30.09 in 6.2 mi ESE 11.5 mph - N/A   Scattered Clouds
12:30 PM 75.2 °F 57.2 °F 53% 30.09 in 6.2 mi East 9.2 mph - N/A   Partly Cloudy
1:00 PM 76 °F 57 °F 42% 30.09 in - East 10.4 mph - -  
1:00 PM 77.0 °F 57.2 °F 50% 30.09 in 6.2 mi East 10.4 mph - N/A   Scattered Clouds
1:30 PM 75.2 °F 57.2 °F 53% 30.06 in 6.2 mi East 11.5 mph - N/A   Partly Cloudy
2:00 PM 77.0 °F 57.2 °F 50% 30.06 in 6.2 mi ESE 10.4 mph - N/A   Partly Cloudy
2:30 PM 77.0 °F 55.4 °F 47% 30.06 in 6.2 mi ENE 13.8 mph - N/A   Partly Cloudy
3:00 PM 76 °F 56 °F 39% 30.07 in 16 mi ENE 11.5 mph - -   Haze
3:00 PM 77.0 °F 55.4 °F 47% 30.06 in 6.2 mi ENE 11.5 mph - N/A   Partly Cloudy
3:30 PM 77.0 °F 57.2 °F 50% 30.06 in 6.2 mi ENE 12.7 mph - N/A   Partly Cloudy
4:00 PM 72 °F 57 °F 50% 30.06 in - ENE 13.8 mph - -  
4:00 PM 71.6 °F 57.2 °F 60% 30.06 in 6.2 mi ENE 13.8 mph - N/A   Scattered Clouds
4:30 PM 71.6 °F 57.2 °F 60% 30.06 in 6.2 mi ENE 13.8 mph - N/A   Scattered Clouds
5:00 PM 71.6 °F 55.4 °F 57% 30.06 in 6.2 mi East 9.2 mph - N/A   Scattered Clouds
5:30 PM 71.6 °F 55.4 °F 57% 30.06 in 6.2 mi East 9.2 mph - N/A   Mostly Cloudy
6:00 PM 71 °F 56 °F 49% 30.11 in 16 mi East 10.4 mph - -   Haze
6:00 PM 71.6 °F 55.4 °F 57% 30.09 in 6.2 mi East 10.4 mph - N/A   Mostly Cloudy
6:30 PM 71.6 °F 55.4 °F 57% 30.09 in 6.2 mi East 8.1 mph - N/A   Mostly Cloudy
7:00 PM 71 °F 55 °F 47% 30.13 in - East 9.2 mph - -  
7:00 PM 69.8 °F 55.4 °F 60% 30.12 in 6.2 mi East 9.2 mph - N/A   Mostly Cloudy
7:30 PM 69.8 °F 55.4 °F 60% 30.12 in 6.2 mi East 8.1 mph - N/A   Mostly Cloudy
8:00 PM 69.8 °F 55.4 °F 60% 30.12 in 6.2 mi East 6.9 mph - N/A   Mostly Cloudy
8:30 PM 69.8 °F 53.6 °F 56% 30.15 in 6.2 mi East 6.9 mph - N/A   Mostly Cloudy
8:37 PM 69.8 °F 55.4 °F 60% 30.15 in 6.2 mi East 8.1 mph - N/A   Overcast
9:00 PM 71 °F 54 °F 45% 30.17 in 16 mi ESE 8.1 mph - -   Partly Cloudy
9:00 PM 69.8 °F 53.6 °F 56% 30.15 in 6.2 mi ESE 8.1 mph - N/A   Scattered Clouds
9:30 PM 69.8 °F 53.6 °F 56% 30.15 in 6.2 mi East 8.1 mph - N/A   Scattered Clouds
10:00 PM 70 °F 55 °F 50% 30.17 in - East 8.1 mph - -  
10:00 PM 69.8 °F 55.4 °F 60% 30.15 in 6.2 mi East 8.1 mph - N/A   Scattered Clouds
10:30 PM 69.8 °F 55.4 °F 60% 30.15 in - ENE 6.9 mph - N/A   Clear
11:00 PM 69.8 °F 55.4 °F 60% 30.15 in 6.2 mi East 6.9 mph - N/A   Mostly Cloudy
11:30 PM 69.8 °F 57.2 °F 64% 30.15 in 6.2 mi East 6.9 mph - N/A   Scattered Clouds